Hourly Weather Roundup
Issued by NWS Central Illinois

Home | Current Version | Previous Version | Text Only | Print | Product List | Glossary On
Versions: 1 2 3 4 5 6 7 8 9 10 11 12 13 14 15 16 17 18 19 20 21 22 23 24 25 26 27 28 29 30 31 32 33 34 35 36 37 38 39 40 41 42 43 44 45 46 47 48 49 50
000
NZUS43 KILX 191510
HWRILX

AREA WEATHER ROUNDUP
NATIONAL WEATHER SERVICE, LINCOLN IL
1000 AM CDT SUN OCT 19 2014


CITY           SKY/WX    TMP DP  RH WIND       PRES   REMARKS
BLOOMINGTON    CLOUDY    47  43  86 SW8       30.25S
CHAMPAIGN      MOSUNNY   50  40  68 SW10      30.25R
DECATUR        CLOUDY    50  43  77 SW7       30.26R
FLORA          SUNNY     50  40  69 SW5       30.28R
GALESBURG      SUNNY     48  44  83 S7        30.21F
JACKSONVILLE   MOSUNNY   55  44  67 SW10      30.24R
LACON          CLOUDY    46  42  86 SW6       30.22F
LAWRENCEVILLE  CLOUDY    51  39  63 CALM      30.28R
LITCHFIELD     PTSUNNY   52  41  66 SW7       30.26R
$$


CITY           SKY/WX    TMP DP  RH WIND       PRES   REMARKS
LINCOLN        CLOUDY    48  46  92 S3        30.24S
MACOMB         SUNNY     51  43  75 SW9       30.24S
MATTOON        PTSUNNY   50  40  68 W8        30.26R
MT CARMEL AP   CLOUDY    52  41  66 CALM      30.27R
OLNEY-NOBLE AP CLOUDY    48  41  76 CALM      30.28R
PARIS          MOSUNNY   49  39  68 SW5       30.27R
PEORIA         CLOUDY    50  44  80 S6        30.23S
PONTIAC        MOSUNNY   46  46 100 S7        30.23S
RANTOUL        MOSUNNY   51  41  67 SW10      30.25S
ROBINSON       CLOUDY    51  41  69 CALM      30.28R
SPRINGFIELD    PTSUNNY   54  43  66 S7        30.24S
TAYLORVILLE    CLOUDY    50  41  71 SW3       30.25S
$$

...REGIONAL REPORTS...


CITY           SKY/WX    TMP DP  RH WIND       PRES   REMARKS
CHICAGO O`HARE PTSUNNY   45  37  73 SW9       30.21S
KANKAKEE       MOSUNNY   48  43  84 SW6       30.24F
MOLINE         SUNNY     48  42  80 SW6       30.19F
MOUNT VERNON   CLOUDY    52  41  66 S5        30.28R
PITTSFIELD     SUNNY     53  43  69 SW9       30.25S
QUINCY         SUNNY     51  44  77 SW8       30.22S
ROCKFORD       CLOUDY    45  40  82 SW8       30.21S
$$


CITY           SKY/WX    TMP DP  RH WIND       PRES   REMARKS
BURLINGTON     SUNNY     48  44  86 S9        30.20S
CEDAR RAPIDS   SUNNY     47  43  86 SW12      30.14F
DES MOINES     MOSUNNY   50  44  80 S14       30.11F
KIRKSVILLE     MOSUNNY   48  44  86 S10       30.20S
OTTUMWA        SUNNY     50  44  80 SW10      30.16S
ST LOUIS       MOSUNNY   54  44  69 S7        30.26R
$$


CITY           SKY/WX    TMP DP  RH WIND       PRES   REMARKS
TERRE HAUTE    PTSUNNY   48  38  68 S7        30.27R
EVANSVILLE     SUNNY     51  40  65 CALM      30.28R
INDIANAPOLIS   PTSUNNY   48  37  65 W8        30.25R
LAFAYETTE      SUNNY     46  39  76 SW6       30.25S
MADISON        CLOUDY    45  39  79 S7        30.13F
MILWAUKEE      PTSUNNY   45  38  76 SW9       30.16F
$$




USA.gov is the U.S. government's official web portal to all federal, state and local government web resources and services.